Location: Kuppenheim
(48.8299°N, 8.2568°E)
Time: 14:49:32
(UTC+00:00)

Cosmos 1092 Rocket - Pass Details

Date: 20 June 2021
Orbit: 955 x 994 km, 82.9° (Epoch: 29 July)

Event Time Altitude Azimuth Distance (km) Brightness Sun altitude
Exits shadow 01:11:06 18° 183° (S) 2,174 5.3 -14.2°
Maximum altitude 01:15:52 83° 97° (E) 969 4.0 -13.9°
Drops below altitude 10° 01:22:03 10° 11° (N) 2,701 7.6 -13.4°
Sets 01:24:33 0° 10° (N) 3,654 8.6 -13.2°
